SL-8 DEB

基本信息
目录编号:
6277
目录名称:
SL-8 DEB
国际标识:
1972-062C
轨道中心:
EARTH
物体状态:
在轨
发射日期:
1972-08-16 UTC
轨道信息
数据来源: 国际轨道数据
星历时间: 2026-09-11T23:43:30+0800
半长轴: 7329.723km
偏心率: 0.0004704
轨道倾角: 82.856°
近地点辐角: 293.610°
升交点赤经: 311.986°
平近点角: 187.821°
近地点: 948.138km
远地点: 955.034km
周期: 104.086分钟
每日圈数: 13.834754
详细信息
发射场:
PKMTR
轨道高度:
LEO
数据来源:
AOE Integration Group
参考系:
TEME
时间系统:
UTC
历元类型:
SGP4
2D轨道图
3D轨道图
轨道高度分析图
轨道倾角分析图
轨道综合分析图
查看轨道综合分析图